Powrót do katalogu

FENGYUN 1C DEB

AktywnyLEO
NORAD 36987·DEBRIS·🇨🇳 China

Wystrzelony May 10, 1999 z Taiyuan Satellite Launch Center

Loading…

Następne Przeloty (najbliższe 24 godziny)

TLE

Starzejące sięSource: Space-Track

Epoka: Sep 12, 2026, 13:31 UTC

1 36987U 99025EBT 26255.56337619  .00000617  00000-0  81659-3 0  9994
2 36987 100.7974 162.8372 0318469 117.1458 246.2521 13.46212957645614

Śledź FENGYUN 1C DEB w czasie rzeczywistym z AllMySat

Download on the App Store